Location: Hamayl? Da??
(36.7028°N, 30.1716°E)
Time: 11:27:55
(UTC+00:00)

NOSS 2-1 (E) - Pass Details

Date: 04 August 2024
Orbit: 385 x 1749 km, 63.3° (Epoch: 07 May)

Event Time Altitude Azimuth Distance (km) Brightness Sun altitude
Rises 18:02:16 0° 201° (SSW) 2,917 6.9 -11.5°
Reaches altitude 10° 18:04:51 10° 196° (SSW) 1,830 5.8 -12.0°
Maximum altitude 18:08:39 50° 121° (ESE) 598 3.1 -12.6°
Drops below altitude 10° 18:11:45 10° 44° (NE) 1,485 5.4 -13.1°
Sets 18:13:39 0° 39° (NE) 2,296 6.4 -13.5°
